NORTHEAST SUFFOLK  -  Dense Fog Advisory Dense Fog Advisory        NORTHERN NASSAU  -  Dense Fog Advisory Dense Fog Advisory        NORTHERN QUEENS  -  Dense Fog Advisory Dense Fog Advisory     Dense Fog Advisory Dense Fog Advisory        NORTHWEST SUFFOLK  -  Dense Fog Advisory Dense Fog Advisory        SOUTHEAST SUFFOLK  -  Dense Fog Advisory Dense Fog Advisory        SOUTHERN NASSAU  -  Dense Fog Advisory Dense Fog Advisory        SOUTHERN QUEENS  -  Dense Fog Advisory Dense Fog Advisory     Dense Fog Advisory Dense Fog Advisory        SOUTHWEST SUFFOLK  -  Dense Fog Advisory Dense Fog Advisory      

Active alerts

Northern Queens
  Details for Northern Queens Dense Fog Advisory  +1 additional alert
Southern Queens
  Details for Southern Queens Dense Fog Advisory  +1 additional alert
Northern Nassau
  Details for Northern Nassau Dense Fog Advisory
Southern Nassau
  Details for Southern Nassau Dense Fog Advisory
Northwest Suffolk
  Details for Northwest Suffolk Dense Fog Advisory
Southwest Suffolk
  Details for Southwest Suffolk Dense Fog Advisory
Northeast Suffolk
  Details for Northeast Suffolk Dense Fog Advisory
Southeast Suffolk
  Details for Southeast Suffolk Dense Fog Advisory


WXM80 ListenWXM80 Stop

You find our weather info also at:

UK Metoffice

WeatherCloud

Weather Underground

Northeastern Weather Network

AWEKAS

Citizen Weather Observer Program (CWOP)

HAMweather, WeatherForYou, PWS Weather


Weather Underground History page Text

Daily Summary for January 25, 2018 Units:  English    Metric   Both
« Previous Day
Next Day »
Daily Weekly Monthly Yearly Custom
  High: Low: Average:
Temperature: TemperatureF °F 23.5 °F 28.7 °F
Dew Point: DewpointF °F 5.9 °F 11.9 °F
Humidity: Humidity % 32 % 50 %
Wind Speed: WindSpeedMPH mph 0.1 mph 4.6 mph
Wind Gust: WindSpeedGustMPH mph - -
Wind:- - West
Pressure: PressureIn in 29.90 in -
Precipitation: 0.00 in    
Historical Graphs
 
 
Tabular Data for January 25, 2018
Time Temperature Dew Point Pressure Wind Wind Speed Wind Gust Humidity Rainfall Rate (Hourly)
TemperatureF °F DewpointF °F PressureIn in Calm     Humidity % HourlyPrecipIn in
00:04 28.0 °F 19.1 °F 29.90 in NW 3.6 mph 8.0 mph 69 % 0.00 in
00:09 27.9 °F 19.0 °F 29.91 in North 5.2 mph 11.5 mph 69 % 0.00 in
00:14 27.8 °F 18.9 °F 29.90 in NW 4.3 mph 10.4 mph 69 % 0.00 in
00:19 27.7 °F 18.8 °F 29.91 in NNW 3.5 mph 5.8 mph 69 % 0.00 in
00:24 27.6 °F 19.1 °F 29.90 in North 6.9 mph 9.0 mph 70 % 0.00 in
00:29 27.4 °F 18.9 °F 29.90 in NNW 8.9 mph 12.0 mph 70 % 0.00 in
00:35 27.3 °F 18.8 °F 29.90 in NNW 6.4 mph 10.4 mph 70 % 0.00 in
00:40 27.1 °F 18.3 °F 29.90 in North 4.5 mph 10.4 mph 69 % 0.00 in
00:45 27.1 °F 18.3 °F 29.90 in NNW 6.3 mph 13.8 mph 69 % 0.00 in
00:50 26.9 °F 18.1 °F 29.90 in NW 6.3 mph 13.8 mph 69 % 0.00 in
00:55 26.8 °F 18.0 °F 29.90 in NNW 5.3 mph 10.4 mph 69 % 0.00 in
01:00 26.6 °F 17.8 °F 29.90 in NNE 6.8 mph 10.4 mph 69 % 0.00 in
01:05 26.5 °F 17.7 °F 29.90 in NW 2.7 mph 8.1 mph 69 % 0.00 in
01:10 26.3 °F 17.5 °F 29.90 in WNW 3.5 mph 11.5 mph 69 % 0.00 in
01:15 26.2 °F 17.4 °F 29.90 in North 6.3 mph 15.0 mph 69 % 0.00 in
01:20 26.1 °F 17.3 °F 29.91 in NNW 4.4 mph 7.0 mph 69 % 0.00 in
01:25 25.9 °F 16.8 °F 29.91 in NNW 7.5 mph 13.8 mph 68 % 0.00 in
01:30 25.8 °F 16.7 °F 29.91 in North 7.3 mph 10.4 mph 68 % 0.00 in
01:35 25.8 °F 17.0 °F 29.91 in NNW 7.5 mph 11.5 mph 69 % 0.00 in
01:40 25.7 °F 16.9 °F 29.92 in NW 6.5 mph 15.0 mph 69 % 0.00 in
01:45 25.6 °F 16.5 °F 29.92 in NNW 4.9 mph 8.1 mph 68 % 0.00 in
01:50 25.4 °F 15.6 °F 29.92 in NW 4.5 mph 9.2 mph 66 % 0.00 in
01:55 25.3 °F 15.2 °F 29.92 in NNW 4.7 mph 12.7 mph 65 % 0.00 in
02:00 25.2 °F 13.6 °F 29.93 in North 6.7 mph 9.0 mph 61 % 0.00 in
02:05 25.1 °F 13.5 °F 29.93 in NNW 3.4 mph 9.2 mph 61 % 0.00 in
02:10 24.9 °F 12.6 °F 29.93 in NE 3.3 mph 9.2 mph 59 % 0.00 in
02:15 24.8 °F 12.9 °F 29.93 in NE 5.4 mph 11.5 mph 60 % 0.00 in
02:20 24.8 °F 12.9 °F 29.94 in NNE 4.8 mph 6.0 mph 60 % 0.00 in
02:25 24.7 °F 12.8 °F 29.94 in NNE 2.1 mph 6.9 mph 60 % 0.00 in
02:31 24.6 °F 13.4 °F 29.94 in WNW 4.7 mph 4.7 mph 62 % 0.00 in
02:36 24.5 °F 13.0 °F 29.94 in NNW 5.0 mph 8.0 mph 61 % 0.00 in
02:41 24.5 °F 13.7 °F 29.95 in NNW 3.0 mph 6.0 mph 63 % 0.00 in
02:46 24.4 °F 13.6 °F 29.95 in NW 3.0 mph 10.0 mph 63 % 0.00 in
02:51 24.4 °F 14.3 °F 29.95 in NW 4.0 mph 9.0 mph 65 % 0.00 in
02:56 24.4 °F 14.3 °F 29.95 in NW 5.0 mph 11.0 mph 65 % 0.00 in
03:01 24.4 °F 14.7 °F 29.95 in NW 1.7 mph 5.8 mph 66 % 0.00 in
03:06 24.4 °F 15.0 °F 29.95 in NW 5.4 mph 11.5 mph 67 % 0.00 in
03:11 24.3 °F 14.6 °F 29.95 in NW 2.3 mph 6.9 mph 66 % 0.00 in
03:16 24.3 °F 14.6 °F 29.96 in NNW 3.6 mph 8.1 mph 66 % 0.00 in
03:21 24.2 °F 14.5 °F 29.96 in NW 6.1 mph 10.4 mph 66 % 0.00 in
03:26 24.2 °F 14.8 °F 29.96 in NW 5.4 mph 9.2 mph 67 % 0.00 in
03:31 24.2 °F 15.2 °F 29.96 in WNW 5.7 mph 8.1 mph 68 % 0.00 in
03:36 24.2 °F 14.8 °F 29.96 in NW 2.7 mph 5.8 mph 67 % 0.00 in
03:41 24.0 °F 14.3 °F 29.96 in NW 5.2 mph 12.7 mph 66 % 0.00 in
03:46 24.0 °F 14.6 °F 29.97 in West 3.3 mph 8.0 mph 67 % 0.00 in
03:51 24.0 °F 15.0 °F 29.97 in NW 5.5 mph 9.2 mph 68 % 0.00 in
03:56 23.9 °F 14.9 °F 29.97 in West 4.1 mph 8.0 mph 68 % 0.00 in
04:01 23.9 °F 15.2 °F 29.98 in NNW 2.9 mph 5.8 mph 69 % 0.00 in
04:06 23.8 °F 15.1 °F 29.97 in WNW 3.4 mph 4.6 mph 69 % 0.00 in
04:11 23.8 °F 15.1 °F 29.97 in WNW 4.7 mph 11.5 mph 69 % 0.00 in
04:16 23.8 °F 15.1 °F 29.97 in West 4.9 mph 11.5 mph 69 % 0.00 in
04:21 23.9 °F 15.2 °F 29.98 in NW 5.8 mph 11.5 mph 69 % 0.00 in
04:26 23.8 °F 14.8 °F 29.99 in WNW 2.7 mph 8.0 mph 68 % 0.00 in
04:31 23.8 °F 14.8 °F 29.99 in NNW 3.5 mph 8.0 mph 68 % 0.00 in
04:36 23.8 °F 14.8 °F 30.00 in WNW 1.6 mph 10.4 mph 68 % 0.00 in
04:41 23.8 °F 14.8 °F 30.00 in WNW 4.1 mph 10.4 mph 68 % 0.00 in
04:46 23.8 °F 14.4 °F 30.00 in NW 5.3 mph 11.5 mph 67 % 0.00 in
04:51 23.7 °F 14.0 °F 30.00 in WNW 7.4 mph 13.8 mph 66 % 0.00 in
04:57 23.7 °F 14.0 °F 30.00 in NW 4.6 mph 8.1 mph 66 % 0.00 in
05:02 23.6 °F 13.9 °F 30.00 in WNW 5.8 mph 9.0 mph 66 % 0.00 in
05:07 23.6 °F 13.9 °F 30.00 in WNW 6.3 mph 10.4 mph 66 % 0.00 in
05:12 23.6 °F 13.9 °F 30.00 in West 5.2 mph 10.4 mph 66 % 0.00 in
05:17 23.6 °F 13.9 °F 30.01 in West 5.5 mph 11.5 mph 66 % 0.00 in
05:22 23.6 °F 13.5 °F 30.01 in West 4.2 mph 6.9 mph 65 % 0.00 in
05:27 23.5 °F 13.5 °F 30.02 in WSW 7.5 mph 10.4 mph 65 % 0.00 in
05:32 23.6 °F 13.5 °F 30.01 in West 6.0 mph 10.4 mph 65 % 0.00 in
05:37 23.5 °F 13.5 °F 30.01 in WNW 4.2 mph 8.1 mph 65 % 0.00 in
05:42 23.6 °F 13.9 °F 30.01 in NW 5.6 mph 9.2 mph 66 % 0.00 in
05:47 23.6 °F 13.9 °F 30.01 in WNW 5.4 mph 11.5 mph 66 % 0.00 in
05:52 23.6 °F 13.9 °F 30.02 in WNW 6.9 mph 11.5 mph 66 % 0.00 in
05:57 23.6 °F 14.2 °F 30.02 in WNW 2.3 mph 8.1 mph 67 % 0.00 in
06:02 23.7 °F 14.3 °F 30.02 in NW 4.3 mph 11.5 mph 67 % 0.00 in
06:07 23.7 °F 14.3 °F 30.03 in WNW 4.1 mph 8.1 mph 67 % 0.00 in
06:12 23.7 °F 14.7 °F 30.03 in WNW 5.2 mph 10.0 mph 68 % 0.00 in
06:17 23.7 °F 14.7 °F 30.03 in WNW 4.1 mph 10.4 mph 68 % 0.00 in
06:22 23.8 °F 14.8 °F 30.03 in WNW 6.1 mph 11.5 mph 68 % 0.00 in
06:27 23.8 °F 15.1 °F 30.03 in NW 4.0 mph 6.9 mph 69 % 0.00 in
06:32 23.9 °F 14.9 °F 30.04 in West 4.0 mph 6.9 mph 68 % 0.00 in
06:37 23.9 °F 14.9 °F 30.05 in West 4.5 mph 7.0 mph 68 % 0.00 in
06:42 23.9 °F 14.9 °F 30.05 in WNW 3.9 mph 10.0 mph 68 % 0.00 in
06:47 23.9 °F 14.9 °F 30.05 in WNW 5.5 mph 8.0 mph 68 % 0.00 in
06:52 24.0 °F 15.0 °F 30.05 in WNW 4.0 mph 6.9 mph 68 % 0.00 in
06:57 24.0 °F 15.0 °F 30.05 in NW 1.2 mph 9.2 mph 68 % 0.00 in
07:03 24.0 °F 15.0 °F 30.05 in NW 5.6 mph 6.9 mph 68 % 0.00 in
07:08 23.9 °F 14.9 °F 30.05 in NW 3.5 mph 6.9 mph 68 % 0.00 in
07:13 23.9 °F 15.2 °F 30.05 in NW 1.0 mph 4.6 mph 69 % 0.00 in
07:18 23.9 °F 15.2 °F 30.06 in NNW 5.1 mph 9.2 mph 69 % 0.00 in
07:23 23.9 °F 14.9 °F 30.06 in WNW 6.0 mph 10.4 mph 68 % 0.00 in
07:28 24.0 °F 15.3 °F 30.06 in NW 4.6 mph 8.1 mph 69 % 0.00 in
07:33 24.0 °F 15.3 °F 30.07 in NNW 6.2 mph 8.1 mph 69 % 0.00 in
07:38 24.2 °F 15.5 °F 30.07 in NNW 3.7 mph 10.4 mph 69 % 0.00 in
07:43 24.2 °F 14.8 °F 30.07 in North 2.2 mph 5.0 mph 67 % 0.00 in
07:48 24.3 °F 15.6 °F 30.07 in NW 4.8 mph 10.4 mph 69 % 0.00 in
07:53 24.4 °F 15.3 °F 30.07 in NNW 4.3 mph 10.0 mph 68 % 0.00 in
07:58 24.5 °F 15.4 °F 30.07 in WNW 4.8 mph 12.0 mph 68 % 0.00 in
08:03 24.7 °F 15.6 °F 30.07 in NW 5.2 mph 8.1 mph 68 % 0.00 in
08:08 24.8 °F 15.4 °F 30.07 in NW 2.9 mph 6.9 mph 67 % 0.00 in
08:13 25.0 °F 15.2 °F 30.08 in WSW 3.8 mph 7.0 mph 66 % 0.00 in
08:18 25.2 °F 15.4 °F 30.08 in NW 5.8 mph 9.2 mph 66 % 0.00 in
08:23 25.4 °F 15.6 °F 30.08 in NW 5.6 mph 9.2 mph 66 % 0.00 in
08:28 25.6 °F 15.8 °F 30.08 in NW 7.9 mph 11.5 mph 66 % 0.00 in
08:33 25.8 °F 15.3 °F 30.08 in NW 5.1 mph 9.2 mph 64 % 0.00 in
08:38 26.0 °F 15.8 °F 30.08 in NNW 4.9 mph 9.2 mph 65 % 0.00 in
08:43 26.2 °F 15.7 °F 30.09 in NNW 6.0 mph 12.7 mph 64 % 0.00 in
08:48 26.4 °F 15.5 °F 30.09 in NW 5.9 mph 11.5 mph 63 % 0.00 in
08:53 26.8 °F 16.2 °F 30.09 in WNW 6.9 mph 10.0 mph 64 % 0.00 in
08:58 27.1 °F 15.8 °F 30.09 in NNW 7.0 mph 11.5 mph 62 % 0.00 in
09:03 27.6 °F 16.6 °F 30.09 in WNW 2.1 mph 4.6 mph 63 % 0.00 in
09:09 27.8 °F 16.1 °F 30.09 in WNW 2.8 mph 9.2 mph 61 % 0.00 in
09:14 27.9 °F 15.8 °F 30.09 in NW 5.8 mph 11.5 mph 60 % 0.00 in
09:19 28.0 °F 15.9 °F 30.10 in NW 4.5 mph 8.1 mph 60 % 0.00 in
09:24 28.3 °F 16.6 °F 30.10 in NNW 6.0 mph 9.2 mph 61 % 0.00 in
09:29 28.6 °F 16.1 °F 30.10 in North 4.4 mph 10.4 mph 59 % 0.00 in
09:34 28.9 °F 16.0 °F 30.10 in NNW 4.4 mph 11.5 mph 58 % 0.00 in
09:39 29.2 °F 16.2 °F 30.11 in North 4.5 mph 11.5 mph 58 % 0.00 in
09:44 29.5 °F 16.5 °F 30.11 in NNW 5.0 mph 9.2 mph 58 % 0.00 in
09:49 29.6 °F 16.2 °F 30.11 in NNW 5.2 mph 10.4 mph 57 % 0.00 in
09:54 29.9 °F 16.1 °F 30.11 in NNW 2.9 mph 6.9 mph 56 % 0.00 in
09:59 30.1 °F 16.3 °F 30.11 in WNW 4.7 mph 6.0 mph 56 % 0.00 in
10:04 30.6 °F 16.7 °F 30.12 in WSW 3.8 mph 10.4 mph 56 % 0.00 in
10:09 30.9 °F 17.0 °F 30.12 in West 5.2 mph 12.0 mph 56 % 0.00 in
10:14 31.2 °F 16.5 °F 30.12 in WNW 6.0 mph 9.2 mph 54 % 0.00 in
10:19 31.4 °F 16.2 °F 30.12 in NNW 3.7 mph 5.0 mph 53 % 0.00 in
10:24 31.5 °F 15.4 °F 30.12 in WNW 5.7 mph 11.0 mph 51 % 0.00 in
10:29 31.5 °F 15.9 °F 30.13 in NW 5.4 mph 8.1 mph 52 % 0.00 in
10:34 31.5 °F 15.4 °F 30.12 in NNW 4.8 mph 6.9 mph 51 % 0.00 in
10:39 31.8 °F 15.7 °F 30.12 in NNW 3.4 mph 10.4 mph 51 % 0.00 in
10:44 32.0 °F 15.9 °F 30.12 in NW 6.8 mph 8.1 mph 51 % 0.00 in
10:49 32.1 °F 15.5 °F 30.12 in NW 5.3 mph 8.1 mph 50 % 0.00 in
10:54 32.0 °F 15.0 °F 30.12 in NNW 5.5 mph 8.1 mph 49 % 0.00 in
10:59 31.8 °F 13.8 °F 30.12 in North 6.7 mph 13.8 mph 47 % 0.00 in
11:04 31.8 °F 14.8 °F 30.12 in WNW 5.3 mph 7.0 mph 49 % 0.00 in
11:10 32.0 °F 15.0 °F 30.12 in North 3.9 mph 10.4 mph 49 % 0.00 in
11:15 32.1 °F 13.6 °F 30.12 in NW 5.2 mph 15.0 mph 46 % 0.00 in
11:20 32.1 °F 12.6 °F 30.12 in WNW 5.0 mph 12.7 mph 44 % 0.00 in
11:25 32.1 °F 12.6 °F 30.12 in NNW 7.9 mph 12.0 mph 44 % 0.00 in
11:30 32.0 °F 12.5 °F 30.12 in NNW 4.5 mph 13.0 mph 44 % 0.00 in
11:35 31.9 °F 11.9 °F 30.12 in NW 5.1 mph 11.5 mph 43 % 0.00 in
11:40 31.9 °F 12.4 °F 30.12 in NNE 4.7 mph 8.1 mph 44 % 0.00 in
11:45 31.8 °F 11.8 °F 30.12 in NNW 6.5 mph 11.5 mph 43 % 0.00 in
11:50 31.7 °F 11.2 °F 30.12 in North 5.5 mph 10.4 mph 42 % 0.00 in
11:55 31.7 °F 11.7 °F 30.12 in North 6.2 mph 10.4 mph 43 % 0.00 in
12:00 31.7 °F 11.2 °F 30.12 in North 6.9 mph 11.5 mph 42 % 0.00 in
12:05 31.7 °F 12.2 °F 30.11 in North 4.5 mph 11.5 mph 44 % 0.00 in
12:10 31.7 °F 11.7 °F 30.12 in North 6.6 mph 11.5 mph 43 % 0.00 in
12:15 31.9 °F 11.4 °F 30.12 in NW 5.5 mph 12.0 mph 42 % 0.00 in
12:20 32.1 °F 11.6 °F 30.12 in NW 4.3 mph 6.9 mph 42 % 0.00 in
12:25 32.4 °F 11.8 °F 30.12 in NNW 5.7 mph 11.5 mph 42 % 0.00 in
12:30 32.6 °F 10.3 °F 30.12 in North 5.8 mph 11.5 mph 39 % 0.00 in
12:35 32.8 °F 10.5 °F 30.12 in North 6.1 mph 11.5 mph 39 % 0.00 in
12:40 32.8 °F 9.9 °F 30.12 in NNW 5.4 mph 8.1 mph 38 % 0.00 in
12:45 32.8 °F 9.9 °F 30.12 in North 5.2 mph 11.5 mph 38 % 0.00 in
12:50 33.0 °F 11.3 °F 30.12 in NNW 4.9 mph 6.9 mph 40 % 0.00 in
12:55 33.2 °F 10.3 °F 30.12 in NW 3.8 mph 10.4 mph 38 % 0.00 in
13:00 33.4 °F 10.5 °F 30.12 in NNW 7.3 mph 11.5 mph 38 % 0.00 in
13:05 33.5 °F 9.4 °F 30.12 in NW 5.4 mph 9.2 mph 36 % 0.00 in
13:10 33.6 °F 10.1 °F 30.11 in NNW 6.0 mph 14.0 mph 37 % 0.00 in
13:15 33.8 °F 10.8 °F 30.11 in NNW 6.0 mph 13.0 mph 38 % 0.00 in
13:20 33.9 °F 10.3 °F 30.11 in NNW 7.0 mph 12.0 mph 37 % 0.00 in
13:25 33.9 °F 9.1 °F 30.11 in NNW 6.0 mph 16.0 mph 35 % 0.00 in
13:31 34.1 °F 9.9 °F 30.11 in NW 5.0 mph 14.0 mph 36 % 0.00 in
13:36 34.1 °F 9.9 °F 30.12 in NW 7.0 mph 12.0 mph 36 % 0.00 in
13:41 34.1 °F 9.9 °F 30.12 in North 6.0 mph 11.5 mph 36 % 0.00 in
13:46 34.3 °F 10.0 °F 30.13 in NNW 6.0 mph 12.0 mph 36 % 0.00 in
13:51 34.4 °F 9.5 °F 30.13 in NW 3.0 mph 8.0 mph 35 % 0.00 in
13:56 34.5 °F 9.0 °F 30.13 in NW 5.0 mph 12.0 mph 34 % 0.00 in
14:01 34.6 °F 9.7 °F 30.13 in NW 5.9 mph 11.5 mph 35 % 0.00 in
14:06 34.7 °F 9.8 °F 30.14 in NW 5.6 mph 11.5 mph 35 % 0.00 in
14:11 34.7 °F 9.8 °F 30.14 in NNW 3.5 mph 11.5 mph 35 % 0.00 in
14:16 34.7 °F 8.5 °F 30.14 in NNE 6.4 mph 13.0 mph 33 % 0.00 in
14:21 34.6 °F 9.7 °F 30.14 in WNW 5.0 mph 8.1 mph 35 % 0.00 in
14:26 34.5 °F 9.6 °F 30.14 in NNW 5.0 mph 11.5 mph 35 % 0.00 in
14:31 34.5 °F 9.0 °F 30.14 in NNW 5.2 mph 11.5 mph 34 % 0.00 in
14:36 34.4 °F 10.2 °F 30.14 in NNW 2.7 mph 4.6 mph 36 % 0.00 in
14:41 34.3 °F 8.1 °F 30.14 in WNW 4.2 mph 6.9 mph 33 % 0.00 in
14:46 34.2 °F 8.0 °F 30.14 in NW 5.4 mph 7.0 mph 33 % 0.00 in
14:51 34.1 °F 8.6 °F 30.15 in West 2.9 mph 8.1 mph 34 % 0.00 in
14:56 33.9 °F 7.1 °F 30.15 in WNW 2.9 mph 5.8 mph 32 % 0.00 in
15:01 33.8 °F 9.0 °F 30.15 in NW 4.2 mph 8.1 mph 35 % 0.00 in
15:06 33.7 °F 8.3 °F 30.15 in NW 2.9 mph 8.0 mph 34 % 0.00 in
15:11 33.5 °F 8.7 °F 30.15 in NNW 5.3 mph 11.0 mph 35 % 0.00 in
15:16 33.4 °F 7.3 °F 30.15 in NNW 5.6 mph 9.2 mph 33 % 0.00 in
15:21 33.4 °F 8.6 °F 30.15 in NW 4.7 mph 6.9 mph 35 % 0.00 in
15:26 33.4 °F 7.3 °F 30.15 in NW 6.4 mph 9.2 mph 33 % 0.00 in
15:31 33.4 °F 8.6 °F 30.15 in NW 4.8 mph 6.9 mph 35 % 0.00 in
15:36 33.4 °F 8.6 °F 30.15 in NNW 4.7 mph 9.0 mph 35 % 0.00 in
15:41 33.3 °F 9.8 °F 30.15 in NNW 5.1 mph 10.4 mph 37 % 0.00 in
15:46 33.2 °F 9.1 °F 30.15 in NNW 4.5 mph 10.4 mph 36 % 0.00 in
15:52 33.2 °F 9.1 °F 30.16 in North 6.5 mph 10.4 mph 36 % 0.00 in
15:57 33.1 °F 7.7 °F 30.16 in North 3.8 mph 11.5 mph 34 % 0.00 in
16:02 33.1 °F 8.4 °F 30.16 in NNW 4.7 mph 9.2 mph 35 % 0.00 in
16:07 33.0 °F 8.3 °F 30.17 in WNW 7.2 mph 11.5 mph 35 % 0.00 in
16:12 32.9 °F 6.9 °F 30.17 in NW 4.4 mph 9.2 mph 33 % 0.00 in
16:17 32.9 °F 8.2 °F 30.17 in North 6.0 mph 11.5 mph 35 % 0.00 in
16:22 32.8 °F 8.1 °F 30.17 in NNW 3.7 mph 7.0 mph 35 % 0.00 in
16:27 32.8 °F 8.7 °F 30.17 in WNW 4.1 mph 9.2 mph 36 % 0.00 in
16:32 32.7 °F 8.0 °F 30.18 in NW 4.8 mph 8.1 mph 35 % 0.00 in
16:37 32.7 °F 8.0 °F 30.18 in NNW 3.5 mph 6.0 mph 35 % 0.00 in
16:42 32.6 °F 9.8 °F 30.18 in NW 6.7 mph 11.5 mph 38 % 0.00 in
16:47 32.5 °F 9.1 °F 30.18 in NNW 4.0 mph 6.0 mph 37 % 0.00 in
16:52 32.4 °F 9.0 °F 30.18 in NNW 4.0 mph 8.1 mph 37 % 0.00 in
16:57 32.3 °F 7.7 °F 30.18 in NNW 3.6 mph 9.2 mph 35 % 0.00 in
17:02 32.3 °F 7.7 °F 30.19 in NW 3.9 mph 9.2 mph 35 % 0.00 in
17:07 32.2 °F 6.9 °F 30.18 in NW 2.2 mph 5.8 mph 34 % 0.00 in
17:12 32.2 °F 7.6 °F 30.19 in NNW 2.3 mph 4.6 mph 35 % 0.00 in
17:17 32.1 °F 7.5 °F 30.18 in NNW 5.0 mph 5.8 mph 35 % 0.00 in
17:22 32.1 °F 8.1 °F 30.19 in NW 1.3 mph 2.0 mph 36 % 0.00 in
17:27 32.0 °F 8.6 °F 30.19 in NW 2.6 mph 3.5 mph 37 % 0.00 in
17:32 31.9 °F 7.9 °F 30.19 in NW 5.4 mph 8.1 mph 36 % 0.00 in
17:37 31.9 °F 7.9 °F 30.20 in NNW 1.5 mph 3.5 mph 36 % 0.00 in
17:42 31.8 °F 7.8 °F 30.20 in WNW 4.0 mph 4.6 mph 36 % 0.00 in
17:48 31.7 °F 8.4 °F 30.21 in NNW 3.7 mph 5.0 mph 37 % 0.00 in
17:53 31.7 °F 7.7 °F 30.21 in WNW 1.8 mph 9.2 mph 36 % 0.00 in
17:58 31.7 °F 9.0 °F 30.22 in NW 5.9 mph 10.0 mph 38 % 0.00 in
18:03 31.7 °F 8.4 °F 30.22 in WNW 3.2 mph 11.5 mph 37 % 0.00 in
18:08 31.7 °F 9.0 °F 30.22 in North 6.4 mph 11.5 mph 38 % 0.00 in
18:13 31.7 °F 9.5 °F 30.23 in NNW 6.2 mph 11.5 mph 39 % 0.00 in
18:18 31.7 °F 9.5 °F 30.23 in NW 5.1 mph 10.4 mph 39 % 0.00 in
18:23 31.7 °F 9.5 °F 30.24 in WNW 7.8 mph 18.4 mph 39 % 0.00 in
18:28 31.7 °F 10.1 °F 30.24 in NW 3.2 mph 9.2 mph 40 % 0.00 in
18:33 31.7 °F 10.1 °F 30.24 in NW 4.2 mph 10.0 mph 40 % 0.00 in
18:38 31.7 °F 10.1 °F 30.24 in NW 4.6 mph 6.9 mph 40 % 0.00 in
18:43 31.6 °F 10.6 °F 30.25 in NW 8.1 mph 16.1 mph 41 % 0.00 in
18:48 31.6 °F 8.9 °F 30.25 in WNW 8.0 mph 15.0 mph 38 % 0.00 in
18:53 31.6 °F 10.0 °F 30.25 in NW 5.7 mph 9.2 mph 40 % 0.00 in
18:58 31.5 °F 9.9 °F 30.26 in WNW 6.0 mph 11.5 mph 40 % 0.00 in
19:03 31.5 °F 9.9 °F 30.26 in NNW 6.8 mph 10.4 mph 40 % 0.00 in
19:08 31.4 °F 9.3 °F 30.26 in NNW 6.7 mph 11.5 mph 39 % 0.00 in
19:13 31.3 °F 9.2 °F 30.26 in North 7.0 mph 9.2 mph 39 % 0.00 in
19:18 31.2 °F 9.6 °F 30.26 in WSW 3.8 mph 11.5 mph 40 % 0.00 in
19:23 31.2 °F 9.6 °F 30.27 in NW 4.0 mph 9.2 mph 40 % 0.00 in
19:28 31.2 °F 8.5 °F 30.27 in NNW 5.6 mph 9.2 mph 38 % 0.00 in
19:33 31.1 °F 9.0 °F 30.27 in NNW 5.8 mph 9.2 mph 39 % 0.00 in
19:39 31.0 °F 8.9 °F 30.27 in NW 5.0 mph 9.2 mph 39 % 0.00 in
19:44 31.0 °F 8.3 °F 30.28 in NW 3.2 mph 4.6 mph 38 % 0.00 in
19:49 30.8 °F 7.6 °F 30.28 in NW 3.9 mph 8.1 mph 37 % 0.00 in
19:54 30.8 °F 8.1 °F 30.28 in NW 4.4 mph 10.4 mph 38 % 0.00 in
19:59 30.7 °F 9.2 °F 30.28 in NW 4.3 mph 11.5 mph 40 % 0.00 in
20:04 30.6 °F 8.5 °F 30.28 in NW 3.5 mph 9.2 mph 39 % 0.00 in
20:09 30.6 °F 8.5 °F 30.27 in NNW 3.4 mph 5.0 mph 39 % 0.00 in
20:14 30.5 °F 8.4 °F 30.28 in NW 4.5 mph 6.9 mph 39 % 0.00 in
20:19 30.4 °F 9.5 °F 30.28 in North 2.1 mph 6.0 mph 41 % 0.00 in
20:24 30.3 °F 9.9 °F 30.29 in NNE 3.4 mph 6.0 mph 42 % 0.00 in
20:29 30.1 °F 9.2 °F 30.30 in North 5.2 mph 6.9 mph 41 % 0.00 in
20:34 29.9 °F 9.0 °F 30.29 in NNW 6.6 mph 8.1 mph 41 % 0.00 in
20:39 29.8 °F 8.4 °F 30.30 in NW 6.1 mph 11.5 mph 40 % 0.00 in
20:44 29.7 °F 8.3 °F 30.30 in NNW 6.3 mph 9.2 mph 40 % 0.00 in
20:49 29.6 °F 8.2 °F 30.30 in NNE 5.6 mph 9.2 mph 40 % 0.00 in
20:54 29.5 °F 8.7 °F 30.30 in NNE 4.0 mph 8.0 mph 41 % 0.00 in
20:59 29.4 °F 8.0 °F 30.30 in NNW 2.5 mph 6.9 mph 40 % 0.00 in
21:04 29.3 °F 8.5 °F 30.30 in North 3.4 mph 4.0 mph 41 % 0.00 in
21:09 29.2 °F 8.4 °F 30.31 in NNW 3.0 mph 6.9 mph 41 % 0.00 in
21:15 29.0 °F 8.7 °F 30.31 in NNE 4.7 mph 9.2 mph 42 % 0.00 in
21:20 28.9 °F 8.1 °F 30.31 in North 2.8 mph 5.8 mph 41 % 0.00 in
21:25 28.8 °F 8.0 °F 30.31 in NNW 2.1 mph 9.2 mph 41 % 0.00 in
21:30 28.8 °F 8.0 °F 30.32 in NNE 1.8 mph 4.6 mph 41 % 0.00 in
21:35 28.7 °F 7.9 °F 30.32 in NW 3.4 mph 5.8 mph 41 % 0.00 in
21:40 28.6 °F 7.8 °F 30.32 in North 1.2 mph 3.5 mph 41 % 0.00 in
21:45 28.5 °F 8.3 °F 30.32 in North 0.4 mph 2.3 mph 42 % 0.00 in
21:50 28.4 °F 7.7 °F 30.32 in North 2.1 mph 5.0 mph 41 % 0.00 in
21:55 28.4 °F 7.7 °F 30.32 in NNW 1.5 mph 3.5 mph 41 % 0.00 in
22:00 28.3 °F 7.6 °F 30.32 in North 2.5 mph 6.9 mph 41 % 0.00 in
22:05 28.3 °F 7.0 °F 30.32 in NW 2.8 mph 5.8 mph 40 % 0.00 in
22:10 28.2 °F 6.4 °F 30.32 in North 4.1 mph 8.1 mph 39 % 0.00 in
22:15 28.2 °F 6.4 °F 30.32 in North 3.6 mph 4.6 mph 39 % 0.00 in
22:20 28.1 °F 7.4 °F 30.32 in North 4.0 mph 6.9 mph 41 % 0.00 in
22:25 28.0 °F 7.3 °F 30.31 in NNE 3.6 mph 5.8 mph 41 % 0.00 in
22:30 28.0 °F 7.3 °F 30.31 in NNE 2.7 mph 6.9 mph 41 % 0.00 in
22:36 27.9 °F 7.2 °F 30.31 in NNE 5.0 mph 8.1 mph 41 % 0.00 in
22:41 27.9 °F 7.2 °F 30.31 in NNE 3.0 mph 6.0 mph 41 % 0.00 in
22:46 27.8 °F 7.1 °F 30.31 in NNE 5.0 mph 7.0 mph 41 % 0.00 in
22:51 27.8 °F 7.1 °F 30.32 in NNE 5.0 mph 7.0 mph 41 % 0.00 in
22:56 27.7 °F 7.1 °F 30.33 in North 2.0 mph 5.0 mph 41 % 0.00 in
23:01 27.7 °F 5.9 °F 30.33 in NNW 3.4 mph 4.6 mph 39 % 0.00 in
23:06 27.8 °F 6.0 °F 30.32 in NNW 1.1 mph 3.5 mph 39 % 0.00 in
23:11 27.9 °F 6.7 °F 30.32 in NNW 1.4 mph 3.5 mph 40 % 0.00 in
23:16 27.9 °F 6.7 °F 30.33 in North 0.6 mph 4.6 mph 40 % 0.00 in
23:21 27.9 °F 7.2 °F 30.32 in North 1.0 mph 2.3 mph 41 % 0.00 in
23:26 27.9 °F 6.7 °F 30.32 in North 1.2 mph 2.3 mph 40 % 0.00 in
23:31 27.9 °F 6.7 °F 30.32 in North 2.5 mph 3.5 mph 40 % 0.00 in
23:36 28.0 °F 7.3 °F 30.32 in North 0.1 mph 1.0 mph 41 % 0.00 in
23:41 28.0 °F 7.3 °F 30.33 in North 0.6 mph 2.3 mph 41 % 0.00 in
23:46 28.0 °F 6.8 °F 30.33 in North 1.3 mph 3.5 mph 40 % 0.00 in
23:51 28.0 °F 7.3 °F 30.33 in North 0.8 mph 3.5 mph 41 % 0.00 in
23:56 28.0 °F 7.3 °F 30.33 in North 3.4 mph 6.0 mph 41 % 0.00 in
Crab Meadow Weather
Compliments of Weather Underground - 3 mb

Script developed by  Jim McMurry - jmcmurry@mwt.net Adapted for the template by  Wim van der Kuil - Leuven-Template.eu

Astronomy: Venus rotates east to west.